Regional Weather Roundup
Issued by NWS

Home | Current Version | Previous Version | Graphics & Text | Print | Product List | Glossary Off
Versions: 1 2 3 4 5 6 7 8 9 10 11 12 13 14 15 16 17 18 19 20 21 22 23 24 25 26 27 28 29 30 31 32 33 34 35 36 37 38 39 40 41 42 43 44 45 46 47 48 49 50

000
ASUS43 KMPX 221710
RWRMN
WEATHER ROUNDUP FOR MINNESOTA
NATIONAL WEATHER SERVICE TWIN CITIES/CHANHASSEN MN
1200 PM CDT SUN OCT 22 2017


NOTE: "FAIR" INDICATES FEW OR NO CLOUDS BELOW 12,000 FEET WITH NO
SIGNIFICANT WEATHER AND/OR OBSTRUCTIONS TO VISIBILITY. N/A MEANS
CURRENT SKY AND/OR WEATHER CONDITIONS ARE NOT AVAILABLE.

MNZ060>063-068>070-221800-
   Twin Cities Metro

CITY           SKY/WX    TMP DP  RH WIND       PRES   REMARKS
TWIN CITIES    MOSUNNY   55  42  61 SW10      30.00F
ST PAUL        MOSUNNY   54  42  64 VRB5      30.01S
CRYSTAL        SUNNY     56  37  49 W10       29.98F
BLAINE         MOSUNNY   55  41  58 SW8       29.99S
LAKEVILLE      CLOUDY    54  43  66 SW5       30.01F
EDEN PRAIRIE   SUNNY     55  42  61 SW10      30.00S
SOUTH ST PAUL  MOSUNNY   54  40  59 W8        30.00S
LAKE ELMO      FAIR      54  43  66 SW6       30.00F
$$
MNZ001>005-007-008-013>017-022>024-027-028-221800-
   Northwest Minnesota

CITY           SKY/WX    TMP DP  RH WIND       PRES   REMARKS
BEMIDJI        SUNNY     53  33  46 W17G29    29.86S
HALLOCK        SUNNY     55  34  44 W15G24    29.76F
ROSEAU         SUNNY     52  37  58 SW21G29   29.75F
WARROAD        SUNNY     52  37  58 W21G29    29.75S
THIEF RVR FALL SUNNY     54  32  43 SW16      29.83S
CROOKSTON      SUNNY     55  34  44 SW14      29.84S
FOSSTON        SUNNY     54  32  43 SW16      29.86S
DETROIT LAKES  SUNNY     54  32  43 SW13G18   29.90S
MOORHEAD       SUNNY     55  34  44 SW12      29.90S
PARK RAPIDS    SUNNY     55  34  45 W16G24    29.89S
MAHNOMEN       FAIR      53  34  47 W17       29.87F
$$
MNZ006-009>011-018-025>026-221800-
   North Central Minnesota

CITY           SKY/WX    TMP DP  RH WIND       PRES   REMARKS
BAUDETTE       SUNNY     52  35  52 W18G32    29.75R
FLAG ISLAND    SUNNY     48  36  61 W17G25    29.69S
INTL FALLS     SUNNY     53  35  50 W18G26    29.77R
WASKISH        SUNNY     52  39  62 W23       29.81S
BIG FORK       SUNNY     54  36  50 W16G25    29.83S
LONGVILLE      SUNNY     55  34  44 W10G21    29.89S
GRAND RAPIDS   SUNNY     53  34  48 W13G22    29.89R
CRANE LAKE     MOSUNNY   52  37  58 SW9G16    29.81R
ORR            SUNNY     54  36  50 SW12G18   29.80R
COOK           SUNNY     54  37  54 SW13G23   29.83S
WALKER         FAIR      53  32  44 W15G22    29.88R
$$
MNZ012-019>021-037-221800-
   Northeast Minnesota

CITY           SKY/WX    TMP DP  RH WIND       PRES   REMARKS
DULUTH         CLOUDY    49  38  65 W17       29.89R
ELY            PTSUNNY   48  36  61 SW13G18   29.83R
HIBBING        SUNNY     51  36  56 W12G18    29.87R
EVELETH        MOSUNNY   50  41  70 W12       29.87R
DULUTH HARBOR  PTSUNNY   52  43  71 SW15      29.91S
TWO HARBORS    PTSUNNY   54  43  66 SW9       29.87S
SILVER BAY     CLOUDY    50  43  76 SW7       29.85R
G MARAIS ARPRT CLOUDY    46  37  71 SW9       29.82S
$$
MNZ029>031-032-039>041-046>048-054>057-064-221800-
   West Central Minnesota

CITY           SKY/WX    TMP DP  RH WIND       PRES   REMARKS
FERGUS FALLS   SUNNY     54  36  50 W10       29.94F
WHEATON        SUNNY     59  30  33 SW13      29.96S
MORRIS         SUNNY     57  36  44 SW10      29.96S
ALEXANDRIA     SUNNY     55  37  50 W16       29.97R
ELBOW LAKE     FAIR      54  35  48 SW7       29.96S
WADENA         SUNNY     54  34  47 W13G23    29.92R
GLENWOOD       SUNNY     54  39  58 W10G16    29.98R
APPLETON       SUNNY     61  32  33 W12       29.97F
BENSON         SUNNY     59  36  41 W12       29.99F
ORTONVILLE     SUNNY     59  30  33 W10       29.97S
MADISON        SUNNY     61  36  39 SW12      29.98F
WILLMAR        FAIR      57  43  58 W10       30.00F
$$
MNZ033>034-036-042>043-049>051-058-059-221800-
   Central Minnesota

CITY           SKY/WX    TMP DP  RH WIND       PRES   REMARKS
ST CLOUD       SUNNY     56  39  53 W14       29.97S
SAUK CENTRE    FAIR      55  38  52 W14G20    29.97S
PAYNESVILLE    SUNNY     56  38  52 W14       29.99R
AITKIN         SUNNY     54  34  47 SW10G17   29.91R
PINE RIVER     SUNNY     52  36  54 W14G20    29.94S
BRAINERD       SUNNY     56  33  42 W16G25    29.93R
STAPLES        SUNNY     55  34  44 W12       29.93R
LONG PRAIRIE   FAIR      54  36  50 SW8       29.96R
LITTLE FALLS   SUNNY     55  27  33 W12G17    29.95S
LITCHFIELD     SUNNY     57  41  54 W6        30.00R
BUFFALO        SUNNY     57  39  51 S10       30.00S
MAPLE LAKE     SUNNY     58  40  51 W7        30.00S
HUTCHINSON     SUNNY     58  41  52 SW6       30.02R
$$
MNZ037-044-045-052-053-221800-
   East Central Minnesota

CITY           SKY/WX    TMP DP  RH WIND       PRES   REMARKS
PRINCETON      SUNNY     59  39  47 SW6       29.97S
MORA           SUNNY     54  41  62 W7        29.97S
CAMBRIDGE      SUNNY     57  43  58 W6        29.97F
RUSH CITY      PTSUNNY   53  40  59 SW5       29.97S
MOOSE LAKE     PTSUNNY   52  39  62 SW8       29.90F
HINCKLEY       FAIR      52  41  66 W14       29.95F
CLOQUET        PTSUNNY   52  36  54 W9        29.90S
MCGREGOR       SUNNY     54  34  47 W9G24     29.92R
$$
MNZ071>073-080-081-089-090-097-098-221800-
   Southwest Minnesota

CITY           SKY/WX    TMP DP  RH WIND       PRES   REMARKS
MONTEVIDEO     SUNNY     63  34  34 W10G16    29.99F
GRANITE FALLS  SUNNY     61  36  39 W12       30.02S HAZE
CANBY          SUNNY     60  32  34 SW12      30.01F
MARSHALL       SUNNY     59  32  36 W16       30.01F
REDWOOD FALLS  SUNNY     60  35  39 W13       30.01S
OLIVIA         SUNNY     57  37  47 W12       30.00R
PIPESTONE      SUNNY     55  34  44 W10       30.03S
WORTHINGTON    SUNNY     58  34  40 SW9       30.06R
JACKSON        SUNNY     59  34  38 W9G16     30.05S
TRACY          SUNNY     60  33  36 W10G17    30.02S
SLAYTON        SUNNY     57  33  39 W12       30.04S
$$
MNZ065>067-074>077-082>085-091>093-221800-
   South Central Minnesota

CITY           SKY/WX    TMP DP  RH WIND       PRES   REMARKS
MANKATO        SUNNY     57  40  52 VRB5      30.03S
NEW ULM        SUNNY     59  37  44 SW3       30.02S
ST JAMES       SUNNY     61  34  36 W13       30.04S
FAIRMONT       SUNNY     59  36  42 W13       30.05S
GLENCOE        SUNNY     58  40  50 S7        30.00S
FARIBAULT      PTSUNNY   55  43  62 W6        30.02F
OWATONNA       CLOUDY    55  45  67 W6        30.03S
WASECA         SUNNY     55  43  62 SW5       30.04F
$$
MNZ078>079-086>088-094>096-221800-
   Southeast Minnesota

CITY           SKY/WX    TMP DP  RH WIND       PRES   REMARKS
ROCHESTER      CLOUDY    51  43  74 W10       30.03S
RED WING       CLOUDY    54  41  62 W6        30.01R
STANTON        CLOUDY    54  42  65 W7        30.01R
DODGE CENTER   CLOUDY    52  43  71 W6        30.03S
WINONA         CLOUDY    54  43  66 W5        30.02R
AUSTIN         PTSUNNY   54  41  62 W7        30.03S
PRESTON        CLOUDY    49  41  72 NW7       30.03S
$$
ABBREVIATIONS USED IN REMARKS
   TC - TEMPERATURES IN CELSIUS
  WCI - WIND CHILL INDEX
   HX - HEAT INDEX
  VSB - VISIBILITY
$$



USA.gov is the U.S. government's official web portal to all federal, state and local government web resources and services.